TimeMDT,TemperatureF,Dew PointF,Humidity,Sea Level PressureIn,VisibilityMPH,Wind Direction,Wind SpeedMPH,Gust SpeedMPH,PrecipitationIn,Events,Conditions,WindDirDegrees,DateUTC
12:56 AM,53.1,44.1,71,30.19,10.0,East,6.9,-,N/A,,Clear,100,2013-06-17 06:56:00
1:56 AM,51.1,44.1,77,30.19,10.0,East,3.5,-,N/A,,Clear,90,2013-06-17 07:56:00
2:56 AM,48.9,44.1,83,30.18,10.0,NE,5.8,-,N/A,,Clear,40,2013-06-17 08:56:00
3:56 AM,46.9,42.1,83,30.18,10.0,ESE,3.5,-,N/A,,Clear,120,2013-06-17 09:56:00
4:56 AM,50.0,44.1,80,30.17,10.0,Calm,Calm,-,N/A,,Clear,0,2013-06-17 10:56:00
5:56 AM,50.0,44.1,80,30.17,10.0,Calm,Calm,-,N/A,,Clear,0,2013-06-17 11:56:00
6:56 AM,51.1,45.0,80,30.17,10.0,Calm,Calm,-,N/A,,Clear,0,2013-06-17 12:56:00
7:56 AM,55.0,46.0,72,30.17,10.0,Calm,Calm,-,N/A,,Clear,0,2013-06-17 13:56:00
8:56 AM,62.1,48.0,60,30.16,10.0,Variable,3.5,-,N/A,,Clear,0,2013-06-17 14:56:00
9:56 AM,66.0,50.0,56,30.14,10.0,Calm,Calm,-,N/A,,Clear,0,2013-06-17 15:56:00
10:56 AM,69.1,48.0,47,30.13,10.0,Variable,5.8,-,N/A,,Clear,0,2013-06-17 16:56:00
11:56 AM,71.1,48.9,45,30.11,10.0,NNE,8.1,-,N/A,,Clear,20,2013-06-17 17:56:00
12:56 PM,73.9,50.0,43,30.08,10.0,Variable,4.6,-,N/A,,Clear,0,2013-06-17 18:56:00
1:56 PM,75.9,50.0,40,30.06,10.0,Variable,3.5,-,N/A,,Clear,0,2013-06-17 19:56:00
2:56 PM,78.1,52.0,40,30.03,10.0,ENE,8.1,-,N/A,,Clear,70,2013-06-17 20:56:00
3:56 PM,78.1,52.0,40,30.01,10.0,ENE,6.9,-,N/A,,Clear,70,2013-06-17 21:56:00
4:56 PM,79.0,50.0,36,29.99,10.0,ENE,4.6,-,N/A,,Clear,70,2013-06-17 22:56:00
5:56 PM,77.0,53.1,43,29.98,10.0,East,13.8,-,N/A,,Clear,100,2013-06-17 23:56:00
6:56 PM,75.9,45.0,33,29.94,10.0,SSE,13.8,17.3,N/A,,Clear,150,2013-06-18 00:56:00
7:56 PM,71.1,52.0,51,29.96,10.0,NE,3.5,-,N/A,,Clear,50,2013-06-18 01:56:00
8:25 PM,69.8,51.8,53,29.92,10.0,ESE,5.8,-,N/A,Thunderstorm,Thunderstorm,120,2013-06-18 02:25:00
8:52 PM,68.0,51.8,56,29.92,10.0,ESE,9.2,-,N/A,,Clear,110,2013-06-18 02:52:00
8:56 PM,69.1,52.0,54,29.94,10.0,ESE,8.1,-,N/A,,Clear,110,2013-06-18 02:56:00
9:56 PM,66.0,51.1,59,29.96,10.0,East,6.9,-,N/A,,Clear,100,2013-06-18 03:56:00
10:32 PM,64.4,51.8,64,29.95,10.0,ESE,10.4,-,N/A,,Partly Cloudy,120,2013-06-18 04:32:00
10:51 PM,66.2,53.6,64,29.94,10.0,SE,6.9,-,N/A,Thunderstorm,Thunderstorm,130,2013-06-18 04:51:00
10:56 PM,66.0,53.1,63,29.95,10.0,East,4.6,-,N/A,Thunderstorm,Thunderstorm,100,2013-06-18 04:56:00
11:46 PM,64.4,53.6,68,29.90,10.0,ENE,11.5,-,N/A,Thunderstorm,Thunderstorm,70,2013-06-18 05:46:00
11:56 PM,64.9,53.1,65,29.91,10.0,North,4.6,-,N/A,Thunderstorm,Thunderstorm,350,2013-06-18 05:56:00